Showing default

YAM-13, 68993

Orbit data source: Space-Track

YAM-13, 68993 is an American payload satellite in SSO that was launched on Sun, 03 May 2026 UTC via an FALCON 9 launch vehicle from the Air Force Western Test Range (AFWTR). Payload-class satellites include a variety of spacecraft equipped with specific instruments for various scientific and technological missions. These include communications satellites like Starlink; space stations such as the ISS; scientific satellites like the Hubble; Earth observation satellites from companies like Planet Labs, Umbra, and HawkEye 360; GPS; miniature CubeSats for education and research; and military/defense satellites.

Loading next visibility...
Identifier
68993, 2026-100P
Orbit
SSO
Country
Flag of USUS
Related business
Manufacturer
Airbus/Toulouse
Mission
Operational Commercial Imaging
Bus & Motor
ARROW, Unknown motor
Mass
~150 kg wet, ~140 kg dry
Launch date (UTC)
2026-05-03 (5 months ago)
Launch vehicle
FALCON 9
Launch site
Air Force Western Test Range (AFWTR)
Object type
Payload
Rocket body
Debris
Shape & HBR
Trap Box + 2 Pan, 2.3 m
Radar Cross Section
2.032 m², Large (>1 m²)

Expand to show TLE details & history
Last TLE update: 12 hours ago

TLE from 12 hours ago
0 YAM-13
1 68993U 26100P   26266.02405939  .00000798  00000-0  87517-4 0  9994
2 68993  97.7759 161.8444 0001932  84.3733 275.7705 14.90419546 21270
Epoch: 2026-09-23T00:34Z
TLE epoch observation values (Epoch: 2026-09-23T00:34:38.731Z)
Latitude
-0.00004°
Longitude
151.3019°
Altitude
599.531 km
Speed
7.56 km/s
True Right ascension
10h 47m 22s
True Declination
0° 00' 00"
Sunlit
Object was in daylight at epoch
Visualization orbit readout
Latitude
Unknown
Longitude
Unknown
Altitude
Unknown
Speed
Unknown
Apparent Right ascension
Unknown
Apparent Declination
Unknown
Sunlit
N/A
Visualization observer readout
Local Sidereal Time
05:22:33
Azimuth
Unknown
Elevation
Unknown
Doppler factor
Unknown
Orbital elements
Apogee altitude
594.995 km
Perigee altitude
592.301 km
Semi-major axis
6,971.785 km
Eccentricity
0.00019
Inclination
97.7759°
RAAN
161.8444°
Arg. of periapsis
84.3733°
True anomaly
275.74847°
Mean anomaly
275.7705°
Eccentric anomaly
275.75949°
Mean motion
3.72844 °/min
Orbital period
96.56 mins
BSTAR
0.000087517
Loading maneuver chart data...
Computing Atmospheric mass density...
Loading historical data...
Loading historical data...
Loading historical data...
Loading historical data...
Loading historical data...
Loading historical data...
Loading historical data...

Documentation

Showing up to 5 results
|